Welcome to the New NWS' Forecast!
Most changes are behind the scenes, but click here for differences you might notice.

Regional Weather Roundup (RWR)

Issued by National Weather Service (NWS)

                            
489 
ASUS43 KOAX 150503
RWRNE 

WEATHER ROUNDUP FOR NEBRASKA
NATIONAL WEATHER SERVICE OMAHA NE
1200 AM CDT WED AUG 15 2018

NOTES: SATELLITE DATA IS BEING USED TO AUGMENT CLOUD COVER ABOVE
       12000 FEET.
       "FAIR" INDICATES FEW OR NO CLOUDS BELOW 12,000 FEET WITH NO
       SIGNIFICANT WEATHER AND/OR OBSTRUCTIONS TO VISIBILITY.

   
NEZ001>004-019>022-054>056-150600-
NEBRASKA PANHANDLE
  
CITY           SKY/WX    TMP DP  RH WIND       PRES   REMARKS
SCOTTSBLUFF    MOCLDY    65  60  84 E8        30.06R                  
ALLIANCE       PTCLDY    60  58  92 SE3       30.08R                  
CHADRON        PTCLDY    61  58  90 NE7       30.08R                  
GORDON         FAIR      58  56  91 NE3       30.08R                  
KIMBALL        CLEAR     60  57  91 S8        30.10F                  
SIDNEY         PTCLDY    62  58  86 SE15      30.07F                  
$$
 
NEZ057>060-069>072-079>082-150600-
SOUTHWEST NEBRASKA
  
CITY           SKY/WX    TMP DP  RH WIND       PRES   REMARKS
NORTH PLATTE   CLEAR     61  59  93 E3        30.02S                  
IMPERIAL       PTCLDY    63  61  93 S5        30.05S                  
LEXINGTON      CLEAR     64  62  94 W5        30.00R                  
MCCOOK         CLEAR     64  61  90 CALM      30.02S                  
OGALLALA       MOCLDY    64  61  91 CALM      30.05S                  
$$
 
NEZ005>010-023>029-035>040-094-150600-
NORTH CENTRAL NEBRASKA
  
CITY           SKY/WX    TMP DP  RH WIND       PRES   REMARKS
VALENTINE      MOCLDY    65  60  84 N6        30.04R                  
AINSWORTH      PTCLDY    62  61  97 N6        30.02R                  
BROKEN BOW     CLEAR     62  62 100 CALM      29.99S                  
O'NEILL        CLEAR     63  62  97 W3        29.98R                  
ORD            CLEAR     63  62  97 CALM      29.95F                  
THEDFORD       PTCLDY    60  59  94 CALM      30.03R                  
$$
 
NEZ041-046>049-061>064-073>077-083>087-150600-
SOUTH CENTRAL NEBRASKA
  
CITY           SKY/WX    TMP DP  RH WIND       PRES   REMARKS
GRAND ISLAND   PTCLDY    64  63  96 CALM      29.95S FOG              
AURORA         CLEAR     62  62 100 CALM      29.94S FOG              
HASTINGS       CLEAR     64  63  96 CALM      29.95F                  
HEBRON         MOCLDY    69  68  96 N5        29.91R                  
HOLDREGE       CLEAR     61  61 100 CALM      29.97F                  
KEARNEY        CLEAR     63  61  93 NW5       29.97F                  
YORK           CLEAR     64  63  94 NE6       29.94R FOG              
$$
 
NEZ011>018-030>034-042>045-150600-
NORTHEAST NEBRASKA
  
CITY           SKY/WX    TMP DP  RH WIND       PRES   REMARKS
NORFOLK        MOCLDY    67  64  90 CALM      29.94R                  
ALBION         CLOUDY    66  64  96 CALM      29.96R                  
BLAIR          CLOUDY    69  65  85 NE12      29.89F                  
COLUMBUS       CLEAR     64  64 100 NW6       29.93S FOG              
FREMONT        CLEAR     69  67  94 N3        29.92R                  
TEKAMAH        PTCLDY    66  65  96 E3        29.90S                  
WAYNE          CLOUDY    65  64  96 NW5       29.93S                  
$$

NEZ050>053-065>068-078-088>093-150600-
SOUTHEAST NEBRASKA
  
CITY           SKY/WX    TMP DP  RH WIND       PRES   REMARKS
LINCOLN        CLEAR     68  65  90 NE6       29.90F                  
OMAHA EPPLEY   DRIZZLE   69  64  84 N13       29.87F                  
BEATRICE       CLOUDY    70  68  96 N5        29.88F                  
FALLS CITY     CLOUDY    72  71  97 NE3       29.84F                  
NEBRASKA CITY  CLOUDY    68  68 100 CALM      29.87F                  
PLATTSMOUTH    CLOUDY    67  65  96 NE6       29.86F FOG              
$$

NEZ044-045-051>053-067-150600-
OMAHA AREA
  
CITY           SKY/WX    TMP DP  RH WIND       PRES   REMARKS
OMAHA EPPLEY   DRIZZLE   69  64  84 N13       29.87F                  
BLAIR          CLOUDY    69  65  85 NE12      29.89F                  
FREMONT        CLEAR     69  67  94 N3        29.92R                  
MILLARD        CLOUDY    72  64  76 NE5       29.88F                  
PLATTSMOUTH    CLOUDY    67  65  96 NE6       29.86F FOG              
WAHOO          FAIR      67  66  97 NW5       29.90F                  
$$